TimeCDT,TemperatureF,Dew PointF,Humidity,Sea Level PressureIn,VisibilityMPH,Wind Direction,Wind SpeedMPH,Gust SpeedMPH,PrecipitationIn,Events,Conditions,WindDirDegrees,DateUTC
12:53 AM,70.0,66.9,90,30.14,10.0,Calm,Calm,-,N/A,,Clear,0,2013-05-26 05:53:00
1:53 AM,70.0,66.9,90,30.13,10.0,Calm,Calm,-,N/A,,Clear,0,2013-05-26 06:53:00
2:53 AM,70.0,66.9,90,30.13,10.0,Calm,Calm,-,N/A,,Clear,0,2013-05-26 07:53:00
3:53 AM,68.0,66.0,93,30.13,10.0,NE,3.5,-,N/A,,Clear,40,2013-05-26 08:53:00
4:53 AM,68.0,66.0,93,30.14,10.0,Calm,Calm,-,N/A,,Clear,0,2013-05-26 09:53:00
5:53 AM,66.9,66.0,97,30.14,10.0,ENE,4.6,-,N/A,,Clear,60,2013-05-26 10:53:00
6:53 AM,68.0,66.0,93,30.16,10.0,ENE,4.6,-,N/A,,Clear,70,2013-05-26 11:53:00
7:53 AM,70.0,66.9,90,30.16,10.0,East,5.8,-,N/A,,Clear,80,2013-05-26 12:53:00
8:53 AM,73.0,68.0,84,30.17,10.0,ENE,5.8,-,N/A,,Clear,60,2013-05-26 13:53:00
9:53 AM,77.0,66.9,71,30.17,10.0,ESE,5.8,-,N/A,,Clear,120,2013-05-26 14:53:00
10:53 AM,80.1,66.0,62,30.18,10.0,East,8.1,-,N/A,,Clear,100,2013-05-26 15:53:00
11:53 AM,82.9,66.0,56,30.17,10.0,ENE,5.8,-,N/A,,Clear,70,2013-05-26 16:53:00
12:53 PM,82.9,61.0,47,30.16,10.0,SE,3.5,-,N/A,,Scattered Clouds,130,2013-05-26 17:53:00
1:53 PM,84.0,63.0,49,30.14,10.0,ENE,4.6,-,N/A,,Scattered Clouds,70,2013-05-26 18:53:00
2:53 PM,84.9,64.9,51,30.12,10.0,East,6.9,-,N/A,,Partly Cloudy,90,2013-05-26 19:53:00
3:53 PM,82.9,66.0,56,30.12,10.0,ENE,6.9,-,N/A,,Mostly Cloudy,70,2013-05-26 20:53:00
4:53 PM,82.0,66.9,60,30.11,10.0,East,9.2,-,N/A,,Overcast,100,2013-05-26 21:53:00
5:53 PM,81.0,66.0,60,30.10,10.0,ESE,10.4,-,N/A,,Scattered Clouds,110,2013-05-26 22:53:00
6:53 PM,79.0,64.0,60,30.10,10.0,ESE,6.9,-,N/A,,Scattered Clouds,110,2013-05-26 23:53:00
7:53 PM,78.1,64.0,62,30.10,10.0,East,5.8,-,N/A,,Mostly Cloudy,100,2013-05-27 00:53:00
8:53 PM,75.9,64.0,67,30.10,10.0,ESE,5.8,-,N/A,,Scattered Clouds,110,2013-05-27 01:53:00
9:53 PM,73.9,63.0,68,30.12,10.0,ESE,5.8,-,N/A,,Clear,110,2013-05-27 02:53:00
10:53 PM,73.0,63.0,71,30.12,10.0,SE,5.8,-,N/A,,Clear,130,2013-05-27 03:53:00
11:53 PM,73.0,64.0,73,30.12,10.0,SSE,3.5,-,N/A,,Clear,150,2013-05-27 04:53:00